Grizzly Air Cargo 5129


CYVR
Vancouver International Airport
Vancouver, CA
KSMF
Sacramento International Airport
Sacramento, US

Activity Log

Date Flight Route Aircraft Duration
10/17/2019 GRZ529 N0350A150 VR R10 WC/N0349A170 B22 XX/N0370A160 V495 HUH/N0461F410 SEA J65 LMT TUDOR2 B738 1h 55m
09/23/2019 GRZ529 YVR05 J5 SEA LMT TUDOR2 B738 1h 50m

Route Details

Aircraft Information
Primary: Boeing 737-800BCF
Backup: Not Available
Route Data
Distance: 635nm
Sched. Duration: 2h 18m
Avg. Duration: 1h 52m (-67m)
Times Flown: 2
Recm'd Route: YVR05 J5 SEA LMT TUDOR2
Planned Altitude: 39,000ft
Origin Wx: CYVR 220200Z 29012KT 20SM FEW150 05/03 A3008 RMK AC1 AC TR SLP188
Dest. Wx: KSMF 220153Z 17006KT 10SM BKN220 14/01 A2996 RMK AO2 SLP145 T01390006
Notes:

Financial History
Total Freight: 29,040lbs
Average Load: 14,520lbs/flt
Fuel Used: 17,263lbs
Avg. Fuel Used: 8,632lbs/flt
Fuel Expense: $13,810
Avg. Fuel Expense: $6,905
Avg. Fuel Cost: $0.80/lbs
Total Gross Income: $43,270
Pilot Pay: $298
Total Expenses: $4,777
Total Revenue: $24,062
Average Revenue: $21,634.80